Shawnee, OK

7:38 AM CDT on August 17, 2017 (GMT -0500)
Shawnee Municipal

Weather History for KSNL - January, 2013

Change the Weather History Date:

Monday, January 28, 2013

  Actual Average (KTIK) Record (KTIK)
Temperature  
Mean Temperature 70 °F -  
Max Temperature 77 °F 47 °F 78 °F (2015)
Min Temperature 62 °F 27 °F 5 °F (1997)
Cooling Degree Days 4    
Growing Degree Days 20 (Base 50)    
Moisture  
Dew Point 65 °F    
Average Humidity 84    
Maximum Humidity 100    
Minimum Humidity 61    
Precipitation  
Precipitation 0.00 in - - ()
Sea Level Pressure  
Sea Level Pressure 29.87 in    
Wind  
Wind Speed 16 mph (South)    
Max Wind Speed 22 mph    
Max Gust Speed 33 mph    
Visibility 10 miles    
Events      
Averages and records for this station are not official NWS values.
T = Trace of Precipitation, MM = Missing Value Source: NWS Daily Summary

Daily Weather History Graph

Daily Weather History Graph

Search for Another Location

Airport or City:

Trip Planner

Search our weather history database for the weather conditions in past years. The results will help you decide how hot, cold, wet, or windy it might be!

Date:

Astronomy

Jan. 28, 2013 Rise Set
Actual Time 7:29 AM CST 5:52 PM CST
Civil Twilight 7:02 AM CST 6:19 PM CST
Nautical Twilight 6:32 AM CST 6:49 PM CST
Astronomical Twilight 6:02 AM CST 7:19 PM CST
Moon 7:41 PM CST (1/28) 8:01 AM CST (1/28)
Length of Visible Light 11h 16m
Length of Day
10h 22m
Full, 98% of the Moon is Illuminated
Jan 28
Full
Feb 3
Last Quarter
Feb 10
New
Feb 17
First Quarter
Feb 25
Full

Hourly Weather History & Observations

Time (CST) Temp. Dew Point Humidity Pressure Visibility Wind Dir Wind Speed Gust Speed Precip Events Conditions
12:15 AM 62.6 °F 62.6 °F 100% 29.91 in 10.0 mi South 11.5 mph - N/A   Overcast
12:35 AM 62.6 °F 62.6 °F 100% 29.91 in 10.0 mi SSE 10.4 mph - N/A   Overcast
12:55 AM 62.6 °F 62.6 °F 100% 29.91 in 10.0 mi South 11.5 mph 16.1 mph N/A   Overcast
1:15 AM 62.6 °F 62.6 °F 100% 29.91 in 10.0 mi South 12.7 mph - N/A   Mostly Cloudy
1:55 AM 64.4 °F 62.6 °F 94% 29.91 in 10.0 mi South 13.8 mph - N/A   Mostly Cloudy
2:15 AM 64.4 °F 62.6 °F 94% 29.91 in 10.0 mi South 13.8 mph 23.0 mph N/A   Mostly Cloudy
2:35 AM 66.2 °F 64.4 °F 94% 29.91 in 10.0 mi South 15.0 mph - N/A   Overcast
2:55 AM 66.2 °F 64.4 °F 94% 29.91 in 10.0 mi South 16.1 mph - N/A   Overcast
3:15 AM 66.2 °F 64.4 °F 94% 29.91 in 10.0 mi SSW 16.1 mph 23.0 mph N/A   Scattered Clouds
3:35 AM 66.2 °F 64.4 °F 94% 29.91 in 10.0 mi South 17.3 mph 24.2 mph N/A   Clear
3:55 AM 64.4 °F 64.4 °F 100% 29.92 in 10.0 mi SSW 15.0 mph 19.6 mph N/A   Clear
4:15 AM 66.2 °F 64.4 °F 94% 29.92 in 10.0 mi SSW 13.8 mph 21.9 mph N/A   Scattered Clouds
4:35 AM 66.2 °F 64.4 °F 94% 29.92 in 10.0 mi SSW 16.1 mph 23.0 mph N/A   Mostly Cloudy
4:55 AM 66.2 °F 64.4 °F 94% 29.92 in 10.0 mi SSW 16.1 mph 23.0 mph N/A   Scattered Clouds
5:15 AM 66.2 °F 64.4 °F 94% 29.92 in 10.0 mi SSW 17.3 mph 21.9 mph N/A   Scattered Clouds
5:35 AM 66.2 °F 64.4 °F 94% 29.92 in 10.0 mi SSW 15.0 mph 21.9 mph N/A   Mostly Cloudy
6:15 AM 68.0 °F 66.2 °F 94% 29.93 in 10.0 mi SSW 16.1 mph 20.7 mph N/A   Overcast
6:35 AM 68.0 °F 68.0 °F 100% 29.93 in 10.0 mi SSW 17.3 mph 24.2 mph N/A   Overcast
6:55 AM 68.0 °F 68.0 °F 100% 29.94 in 10.0 mi SSW 19.6 mph 25.3 mph N/A   Overcast
7:15 AM 68.0 °F 68.0 °F 100% 29.94 in 10.0 mi SSW 13.8 mph 24.2 mph N/A   Overcast
7:35 AM 68.0 °F 68.0 °F 100% 29.94 in 10.0 mi South 15.0 mph - N/A   Overcast
7:55 AM 68.0 °F 66.2 °F 94% 29.94 in 10.0 mi South 17.3 mph 21.9 mph N/A   Overcast
8:15 AM 68.0 °F 66.2 °F 94% 29.95 in 10.0 mi South 16.1 mph 19.6 mph N/A   Overcast
8:35 AM 68.0 °F 68.0 °F 100% 29.95 in 10.0 mi SSW 17.3 mph 24.2 mph N/A   Overcast
8:55 AM 68.0 °F 66.2 °F 94% 29.95 in 10.0 mi South 21.9 mph 25.3 mph N/A   Overcast
9:15 AM 69.8 °F 68.0 °F 94% 29.95 in 10.0 mi South 19.6 mph 31.1 mph N/A   Overcast
9:35 AM 71.6 °F 68.0 °F 88% 29.96 in 10.0 mi SSW 20.7 mph 25.3 mph N/A   Overcast
9:55 AM 71.6 °F 68.0 °F 88% 29.96 in 10.0 mi South 20.7 mph 28.8 mph N/A   Overcast
10:15 AM 71.6 °F 68.0 °F 88% 29.96 in 10.0 mi South 17.3 mph 26.5 mph N/A   Overcast
10:35 AM 71.6 °F 68.0 °F 88% 29.96 in 10.0 mi South 18.4 mph 25.3 mph N/A   Overcast
10:55 AM 71.6 °F 68.0 °F 88% 29.96 in 10.0 mi South 16.1 mph 24.2 mph N/A   Overcast
11:15 AM 71.6 °F 68.0 °F 88% 29.94 in 10.0 mi South 17.3 mph 25.3 mph N/A   Overcast
11:35 AM 71.6 °F 68.0 °F 88% 29.94 in 10.0 mi SSW 20.7 mph 25.3 mph N/A   Overcast
11:55 AM 73.4 °F 66.2 °F 78% 29.93 in 10.0 mi South 16.1 mph 24.2 mph N/A   Overcast
12:15 PM 73.4 °F 66.2 °F 78% 29.91 in 10.0 mi South 16.1 mph 31.1 mph N/A   Overcast
12:35 PM 77.0 °F 66.2 °F 69% 29.89 in 10.0 mi SSW 18.4 mph 29.9 mph N/A   Overcast
12:55 PM 77.0 °F 64.4 °F 65% 29.87 in 10.0 mi SSW 20.7 mph 33.4 mph N/A   Overcast
1:15 PM 77.0 °F 64.4 °F 65% 29.87 in 10.0 mi South 20.7 mph 29.9 mph N/A   Mostly Cloudy
1:35 PM 77.0 °F 64.4 °F 65% 29.86 in 10.0 mi SSW 18.4 mph 26.5 mph N/A   Mostly Cloudy
1:55 PM 77.0 °F 62.6 °F 61% 29.85 in 10.0 mi South 21.9 mph 29.9 mph N/A   Overcast
2:15 PM 77.0 °F 64.4 °F 65% 29.84 in 10.0 mi South 16.1 mph 29.9 mph N/A   Overcast
2:35 PM 77.0 °F 64.4 °F 65% 29.84 in 10.0 mi South 17.3 mph 26.5 mph N/A   Overcast
2:55 PM 77.0 °F 64.4 °F 65% 29.83 in 10.0 mi South 18.4 mph 27.6 mph N/A   Overcast
3:15 PM 77.0 °F 64.4 °F 65% 29.82 in 10.0 mi SSW 15.0 mph 29.9 mph N/A   Overcast
3:35 PM 77.0 °F 64.4 °F 65% 29.82 in 10.0 mi South 16.1 mph 28.8 mph N/A   Overcast
3:55 PM 77.0 °F 64.4 °F 65% 29.81 in 10.0 mi South 21.9 mph 25.3 mph N/A   Overcast
4:15 PM 77.0 °F 66.2 °F 69% 29.81 in 10.0 mi South 18.4 mph 23.0 mph N/A   Overcast
4:35 PM 77.0 °F 66.2 °F 69% 29.81 in 10.0 mi South 13.8 mph 21.9 mph N/A   Overcast
4:55 PM 77.0 °F 66.2 °F 69% 29.80 in 10.0 mi South 16.1 mph 20.7 mph N/A   Mostly Cloudy
5:15 PM 77.0 °F 66.2 °F 69% 29.80 in 10.0 mi SSE 13.8 mph 24.2 mph N/A   Mostly Cloudy
5:35 PM 73.4 °F 64.4 °F 73% 29.80 in 10.0 mi South 13.8 mph 21.9 mph N/A   Scattered Clouds
5:55 PM 73.4 °F 66.2 °F 78% 29.79 in 10.0 mi SSE 11.5 mph 18.4 mph N/A   Scattered Clouds
6:15 PM 71.6 °F 64.4 °F 78% 29.80 in 10.0 mi SSE 11.5 mph 18.4 mph N/A   Mostly Cloudy
6:35 PM 71.6 °F 64.4 °F 78% 29.79 in 10.0 mi SSE 15.0 mph - N/A   Scattered Clouds
6:55 PM 71.6 °F 64.4 °F 78% 29.79 in 10.0 mi SSE 16.1 mph 19.6 mph N/A   Clear
7:15 PM 71.6 °F 64.4 °F 78% 29.79 in 10.0 mi South 18.4 mph 23.0 mph N/A   Clear
7:35 PM 71.6 °F 64.4 °F 78% 29.79 in 10.0 mi South 21.9 mph 29.9 mph N/A   Clear
7:55 PM 71.6 °F 64.4 °F 78% 29.79 in 10.0 mi SSE 17.3 mph 23.0 mph N/A   Clear
8:15 PM 71.6 °F 66.2 °F 83% 29.79 in 10.0 mi South 17.3 mph 24.2 mph N/A   Scattered Clouds
8:35 PM 71.6 °F 66.2 °F 83% 29.79 in 10.0 mi South 18.4 mph 26.5 mph N/A   Mostly Cloudy
8:55 PM 71.6 °F 66.2 °F 83% 29.79 in 10.0 mi South 19.6 mph 26.5 mph N/A   Overcast
9:15 PM 71.6 °F 66.2 °F 83% 29.79 in 10.0 mi South 18.4 mph 25.3 mph N/A   Mostly Cloudy
9:35 PM 71.6 °F 66.2 °F 83% 29.79 in 10.0 mi South 20.7 mph 31.1 mph N/A   Scattered Clouds
9:55 PM 71.6 °F 64.4 °F 78% 29.78 in 10.0 mi South 19.6 mph 26.5 mph N/A   Scattered Clouds
10:15 PM 71.6 °F 64.4 °F 78% 29.77 in 10.0 mi South 19.6 mph 26.5 mph N/A   Mostly Cloudy
10:35 PM 71.6 °F 64.4 °F 78% 29.77 in 10.0 mi South 17.3 mph 25.3 mph N/A   Mostly Cloudy
10:55 PM 71.6 °F 64.4 °F 78% 29.78 in 10.0 mi South 16.1 mph 25.3 mph N/A   Scattered Clouds
11:15 PM 71.6 °F 64.4 °F 78% 29.77 in 10.0 mi South 18.4 mph 26.5 mph N/A   Scattered Clouds
11:35 PM 71.6 °F 64.4 °F 78% 29.77 in 10.0 mi South 18.4 mph 26.5 mph N/A   Clear
11:55 PM 71.6 °F 64.4 °F 78% 29.76 in 10.0 mi South 19.6 mph 27.6 mph N/A   Clear